DW4707 Campi Bisenzio - Firenze IT current weather conditions

sailwx.info

Last reported at 2016-Aug-21 08:26 UTC.
Time now 2017-Feb-20 14:02 UTC

Location: N 43°50' E 011°08'.
View on Google Maps.

See reports from other nearby stations

  
Tides and Currents Weather Stations Pressure Air Temp Water Temp Dewpoint Dewpoint Depression Visibility Wind Speed Wind Dir Waves Ship Positions
date/time (UTC)wind fromknots sea level pressurealtimeterstation pressurevisibilityair tempwater tempwave heightnotes
2017-Feb-20 12:46 068 14.4
2017-Feb-20 12:31 248 14.4
2017-Feb-20 12:26 092 15.0
2017-Feb-20 12:21 15.0
2017-Feb-20 12:16 022 14.4
2017-Feb-20 12:11 022 15.0
2017-Feb-20 12:06 338 15.0
2017-Feb-20 11:56 14.4
2017-Feb-20 11:51 151 14.4
2017-Feb-20 11:46 045 14.4
2017-Feb-20 11:41 028 14.4
2017-Feb-20 11:36 030 13.9
2017-Feb-20 11:21 13.9
2017-Feb-20 11:16 022 13.9
2017-Feb-20 11:06 112 13.3
2017-Feb-20 10:56 022 13.3
2017-Feb-20 10:41 049 13.3
2017-Feb-20 10:16 202 12.2
2017-Feb-20 10:06 047 11.7
2017-Feb-20 09:56 195 11.7
2017-Feb-20 09:51 022 11.7
2017-Feb-20 09:36 200 10.0
2017-Feb-20 09:16 045 10.0
2017-Feb-20 09:11 202 9.4
2017-Feb-20 09:01 045 8.9
2017-Feb-20 08:51 068 8.9
2017-Feb-20 08:46 045 8.9
2017-Feb-20 08:41 149 8.3
2017-Feb-20 08:36 022 7.8
2017-Feb-20 08:31 045 8.3
2017-Feb-20 08:26 089 8.3
2017-Feb-20 08:21 023 7.8
2017-Feb-20 08:11 058 6.7
2017-Feb-20 08:06 021 6.1
2017-Feb-20 08:01 022 0 gusting 0 5.6
2017-Feb-20 07:56 198 5.0
2017-Feb-20 07:51 117 4.4
2017-Feb-20 07:46 112 4.4
2017-Feb-20 07:41 106 4.4
2017-Feb-20 07:36 112 4.4
2017-Feb-20 07:26 135 3.9
2017-Feb-20 07:21 135 3.9
2017-Feb-20 07:16 022 3.9
2017-Feb-20 07:11 022 3.3
2017-Feb-20 07:06 043 3.3
2017-Feb-20 06:56 050 3.3
2017-Feb-20 06:46 022 3.3
2017-Feb-20 06:41 022 3.3
2017-Feb-20 06:31 022 3.3
2017-Feb-20 06:26 135 3.3
2017-Feb-20 06:21 090 3.3
2017-Feb-20 06:16 090 3.3
2017-Feb-20 06:11 090 3.3
2017-Feb-20 06:01 022 3.3
2017-Feb-20 05:51 022 3.3
2017-Feb-20 05:41 090 3.3
2017-Feb-20 05:36 090 2.8
2017-Feb-20 05:31 090 2.8
2017-Feb-20 05:26 068 2.8
2017-Feb-20 05:21 068 2.8
2017-Feb-20 05:16 068 2.8
2017-Feb-20 05:11 090 2.8
2017-Feb-20 05:06 068 2.8
2017-Feb-20 04:51 338 2.8
2017-Feb-20 04:46 090 2.8
2017-Feb-20 04:41 090 2.8
2017-Feb-20 04:31 158 2.8
2017-Feb-20 04:26 202 2.8
2017-Feb-20 04:21 202 2.8
2017-Feb-20 04:11 270 3.3
2017-Feb-20 04:07 202 3.3
2017-Feb-20 04:01 022 3.3
2017-Feb-20 03:56 022 3.3
2017-Feb-20 03:52 3.3
2017-Feb-20 03:26 180 3.3
2017-Feb-20 03:22 180 3.3
2017-Feb-20 03:16 180 3.3
2017-Feb-20 03:06 180 2.8
2017-Feb-20 02:57 180 3.3
2017-Feb-20 02:51 180 3.3
2017-Feb-20 02:41 165 3.3
2017-Feb-20 02:37 068 3.3
2017-Feb-20 02:32 068 3.3
2017-Feb-20 02:27 165 3.3
2017-Feb-20 02:22 162 3.3
2017-Feb-20 02:17 135 3.3
2017-Feb-20 02:11 090 3.3
2017-Feb-20 02:07 090 3.3
2017-Feb-20 02:02 068 3.3
2017-Feb-20 01:56 180 3.3
2017-Feb-20 01:51 180 3.9
2017-Feb-20 01:47 180 3.9
2017-Feb-20 01:42 180 3.3
2017-Feb-20 01:37 180 3.9
2017-Feb-20 01:26 180 3.9
2017-Feb-20 01:22 180 3.9
2017-Feb-20 01:12 180 3.9
2017-Feb-20 01:07 180 4.4
2017-Feb-20 00:57 168 4.4
2017-Feb-20 00:51 158 4.4
2017-Feb-20 00:37 158 4.4
2017-Feb-20 00:32 158 4.4
2017-Feb-20 00:21 158 4.4
2017-Feb-20 00:16 158 4.4
2017-Feb-20 00:11 158 4.4
2017-Feb-20 00:07 158 4.4
2017-Feb-20 00:01 158 5.0
2017-Feb-19 23:56 180 5.0
2017-Feb-19 23:51 180 5.0
2017-Feb-19 23:47 180 0 gusting 25 5.0
2017-Feb-19 23:42 158 5.0
2017-Feb-19 23:37 090 1 gusting 25 5.0
2017-Feb-19 23:31 104 1 gusting 25 5.0
2017-Feb-19 23:27 022 0 gusting 25 5.0
2017-Feb-19 23:17 022 5.0
2017-Feb-19 23:12 022 5.0
2017-Feb-19 23:07 022 5.6
2017-Feb-19 23:02 022 5.6
2017-Feb-19 22:47 022 5.6
2017-Feb-19 22:36 022 5.6
2017-Feb-19 22:32 022 6.1
2017-Feb-19 22:27 022 6.1
2017-Feb-19 22:22 022 6.1
2017-Feb-19 22:17 022 6.1
2017-Feb-19 22:12 022 6.1
2017-Feb-19 22:06 022 6.7
2017-Feb-19 22:02 022 6.7
2017-Feb-19 21:46 338 6.7
2017-Feb-19 21:41 338 7.2
2017-Feb-19 21:36 338 7.2
2017-Feb-19 21:32 7.2
2017-Feb-19 21:27 172 7.2
2017-Feb-19 21:22 7.2
2017-Feb-19 21:02 022 7.8
2017-Feb-19 20:51 022 7.8
2017-Feb-19 20:46 022 7.8
2017-Feb-19 20:37 022 7.8
2017-Feb-19 20:31 7.8
2017-Feb-19 20:26 022 7.8
2017-Feb-19 20:16 022 7.8
2017-Feb-19 20:06 022 7.8
2017-Feb-19 19:56 022 7.8
2017-Feb-19 19:51 022 8.3
2017-Feb-19 19:42 202 8.3
2017-Feb-19 19:22 202 8.9
2017-Feb-19 19:12 188 8.9
2017-Feb-19 19:07 180 8.9
2017-Feb-19 19:01 180 8.9
2017-Feb-19 18:51 180 9.4
2017-Feb-19 18:47 180 9.4
2017-Feb-19 18:37 180 9.4
2017-Feb-19 18:31 180 9.4
2017-Feb-19 18:27 180 10.0
2017-Feb-19 18:16 180 10.0
2017-Feb-19 18:11 180 10.0
2017-Feb-19 18:02 022 10.6
2017-Feb-19 17:46 022 10.6
2017-Feb-19 17:41 022 11.1
2017-Feb-19 17:36 022 11.1
2017-Feb-19 17:26 061 11.1
2017-Feb-19 17:22 045 11.7
2017-Feb-19 17:06 045 11.7
2017-Feb-19 17:01 062 11.7
2017-Feb-19 16:32 022 12.8
2017-Feb-19 16:26 022 13.3
2017-Feb-19 16:21 022 13.3
2017-Feb-19 16:16 180 13.3
2017-Feb-19 16:12 022 13.3
2017-Feb-19 16:07 022 13.3
2017-Feb-19 15:57 347 13.9
2017-Feb-19 15:51 022 13.9
2017-Feb-19 15:36 045 13.9
2017-Feb-19 15:32 013 13.9
2017-Feb-19 15:27 13.9
2017-Feb-19 15:22 13.9
2017-Feb-19 15:16 13.9
2017-Feb-19 15:07 13.9
2017-Feb-19 15:01 045 13.9
2017-Feb-19 14:41 020 14.4
2017-Feb-19 14:36 202 14.4
2017-Feb-19 14:22 045 14.4
2017-Feb-19 14:17 159 13.9
2017-Feb-19 14:12 341 14.4
2017-Feb-19 14:06 022 14.4
2017-Feb-19 14:02 063 14.4
2017-Feb-19 13:52 022 13.9
2017-Feb-19 13:46 012 13.9
2017-Feb-19 13:27 022 13.9
2017-Feb-19 13:22 112 13.9
2017-Feb-19 13:17 116 13.9
2017-Feb-19 13:07 14.4
2017-Feb-19 12:57 13.9
2017-Feb-19 12:47 158 0 gusting 0 14.4
2017-Feb-19 12:42 068 14.4
2017-Feb-19 12:37 338 14.4
2017-Feb-19 12:32 027 14.4
2017-Feb-19 12:27 022 15.0
2017-Feb-19 12:22 068 14.4
2017-Feb-19 12:12 045 15.6
2017-Feb-19 12:02 340 0 gusting 0 15.6
2017-Feb-19 11:57 15.0
2017-Feb-19 11:52 068 15.0
2017-Feb-19 11:47 036 15.0
2017-Feb-19 11:42 14.4
2017-Feb-19 11:32 018 14.4
2017-Feb-19 11:22 022 13.9
2017-Feb-19 11:01 149 13.3
2017-Feb-19 10:47 045 12.2
2017-Feb-19 10:41 068 12.2
2017-Feb-19 10:32 343 11.7
2017-Feb-19 10:26 022 11.7
2017-Feb-19 10:22 202 11.7
2017-Feb-19 10:12 068 11.7
2017-Feb-19 10:07 022 11.1
2017-Feb-19 10:01 123 11.1
2017-Feb-19 09:47 336 11.1
2017-Feb-19 09:41 068 11.1
2017-Feb-19 09:37 202 10.6
2017-Feb-19 09:32 034 10.0
2017-Feb-19 09:27 045 10.0
2017-Feb-19 09:17 064 10.0
2017-Feb-19 09:12 10.0
2017-Feb-19 09:07 338 10.0
2017-Feb-19 09:02 045 9.4
2017-Feb-19 08:57 202 9.4
2017-Feb-19 08:52 045 8.9
2017-Feb-19 08:47 063 8.9
2017-Feb-19 08:37 180 8.3
2017-Feb-19 08:21 045 7.8
2017-Feb-19 08:17 165 7.2
2017-Feb-19 08:12 338 6.7
2017-Feb-19 08:07 022 6.1
2017-Feb-19 07:57 158 4.4
2017-Feb-19 07:52 180 3.9
2017-Feb-19 07:47 142 3.3
2017-Feb-19 07:42 022 3.3
2017-Feb-19 07:37 003 3.3
2017-Feb-19 07:12 090 2.2
2017-Feb-19 07:07 158 2.2
2017-Feb-19 07:02 180 2.2
2017-Feb-19 06:52 022 1.7
2017-Feb-19 06:42 022 1.7
2017-Feb-19 06:37 022 1.7
2017-Feb-19 06:32 022 1.7
2017-Feb-19 06:27 270 1.7
2017-Feb-19 06:22 202 1.7
2017-Feb-19 06:17 202 1.7
2017-Feb-19 06:12 180 1.7
2017-Feb-19 06:07 158 1.7
2017-Feb-19 05:57 112 1.7
2017-Feb-19 05:47 090 1.7
2017-Feb-19 05:42 090 1.7
2017-Feb-19 05:32 112 1.7
2017-Feb-19 05:22 112 1.7
2017-Feb-19 05:17 124 2.2
2017-Feb-19 05:12 045 1.7
2017-Feb-19 04:57 180 2.2
2017-Feb-19 04:52 202 2.2
2017-Feb-19 04:37 202 2.8
2017-Feb-19 04:22 2.8
2017-Feb-19 04:17 324 2.8
2017-Feb-19 04:12 292 2.8
2017-Feb-19 04:07 292 2.8
2017-Feb-19 04:02 202 2.8
2017-Feb-19 03:57 338 2.8
2017-Feb-19 03:52 338 2.8
2017-Feb-19 03:42 180 2.8
2017-Feb-19 03:37 225 2.8
2017-Feb-19 03:32 292 2.8
2017-Feb-19 03:17 227 2.8
2017-Feb-19 03:12 202 2.8
2017-Feb-19 02:57 180 3.3
2017-Feb-19 02:47 180 3.3
2017-Feb-19 02:42 180 3.3
2017-Feb-19 02:37 180 3.3
2017-Feb-19 02:32 180 3.3
2017-Feb-19 02:27 180 3.3
2017-Feb-19 02:12 315 3.3
2017-Feb-19 02:02 180 3.3
2017-Feb-19 01:57 180 3.9
2017-Feb-19 01:52 180 3.9
2017-Feb-19 01:47 180 3.9
2017-Feb-19 01:42 180 3.9
2017-Feb-19 01:27 045 3.9
2017-Feb-19 01:22 089 3.9
2017-Feb-19 01:17 248 3.9
2017-Feb-19 01:12 248 4.4
2017-Feb-19 01:02 225 4.4
2017-Feb-19 00:52 319 4.4
2017-Feb-19 00:47 022 4.4
2017-Feb-19 00:27 180 4.4
2017-Feb-19 00:17 180 4.4
2017-Feb-19 00:12 180 4.4
2017-Feb-19 00:02 180 5.0
2017-Feb-18 23:57 180 5.0
2017-Feb-18 23:52 045 5.0
2017-Feb-18 23:46 045 5.0
2017-Feb-18 23:42 045 5.0
2017-Feb-18 23:37 053 5.0
2017-Feb-18 23:32 050 5.0
2017-Feb-18 23:27 045 5.0
2017-Feb-18 23:22 095 5.0
2017-Feb-18 23:12 068 5.6
2017-Feb-18 23:07 107 5.6
2017-Feb-18 22:56 112 5.6
2017-Feb-18 22:52 112 5.6
2017-Feb-18 22:47 045 5.6
2017-Feb-18 22:42 045 5.6
2017-Feb-18 22:36 045 5.6
2017-Feb-18 22:31 045 5.6
2017-Feb-18 22:26 045 5.6
2017-Feb-18 22:17 068 6.1
2017-Feb-18 22:12 045 6.1
2017-Feb-18 22:07 180 6.1
2017-Feb-18 22:02 176 6.1
2017-Feb-18 21:57 045 6.7
2017-Feb-18 21:47 282 6.1
2017-Feb-18 21:42 292 6.7
2017-Feb-18 21:32 292 6.7
2017-Feb-18 21:27 202 6.7
2017-Feb-18 21:21 180 6.7
2017-Feb-18 21:17 249 6.7
2017-Feb-18 21:12 202 6.7
2017-Feb-18 20:57 248 7.2
2017-Feb-18 20:47 248 7.8
2017-Feb-18 20:42 180 7.8
2017-Feb-18 20:32 068 8.3
2017-Feb-18 20:27 068 8.3
2017-Feb-18 20:22 158 8.3
2017-Feb-18 20:17 8.3
2017-Feb-18 20:07 158 8.9
2017-Feb-18 20:02 158 8.9
2017-Feb-18 19:57 045 9.4
2017-Feb-18 19:47 022 10.0
2017-Feb-18 19:37 022 10.0
2017-Feb-18 19:32 021 10.6
2017-Feb-18 19:27 045 10.6
2017-Feb-18 19:22 005 10.6
2017-Feb-18 19:17 025 10.6
2017-Feb-18 18:52 028 10.6
2017-Feb-18 18:47 045 11.1
2017-Feb-18 18:42 022 11.1
2017-Feb-18 18:32 045 11.1
2017-Feb-18 18:22 018 11.7
2017-Feb-18 18:17 001 0 gusting 1 11.7
2017-Feb-18 18:12 068 0 gusting 0 11.7
2017-Feb-18 18:02 022 3 gusting 4 11.7
2017-Feb-18 17:57 022 0 gusting 1 11.7
2017-Feb-18 17:52 017 12.2
2017-Feb-18 17:47 022 12.2
2017-Feb-18 17:22 022 2 gusting 2 12.8
2017-Feb-18 17:17 338 12.8
2017-Feb-18 17:07 13.3
2017-Feb-18 16:57 045 13.3
2017-Feb-18 16:52 043 0 gusting 0 13.3
2017-Feb-18 16:47 067 0 gusting 2 13.3
2017-Feb-18 16:37 343 13.9
2017-Feb-18 16:32 13.9
2017-Feb-18 16:27 022 13.9
2017-Feb-18 16:17 14.4
2017-Feb-18 16:12 14.4
2017-Feb-18 16:07 022 14.4
2017-Feb-18 16:02 022 1 gusting 4 15.0
2017-Feb-18 15:47 292 0 gusting 6 15.0
2017-Feb-18 15:32 068 15.6
2017-Feb-18 15:27 045 2 gusting 2 15.6
2017-Feb-18 15:22 022 15.6
2017-Feb-18 15:17 022 0 gusting 0 15.6
2017-Feb-18 15:07 012 1 gusting 1 15.6
2017-Feb-18 15:02 022 15.6
2017-Feb-18 14:57 045 2 gusting 2 15.6
2017-Feb-18 14:42 022 0 gusting 0 15.6
2017-Feb-18 14:37 022 15.6
2017-Feb-18 14:22 15.6
2017-Feb-18 14:17 022 0 gusting 7 15.6
2017-Feb-18 14:12 15.6
2017-Feb-18 14:07 022 0 gusting 6 15.6
2017-Feb-18 14:02 15.6